Tracking 17842 objects as of 29-August-2016
HD Live streaming from Space Station
objects crossing your sky now

COSMOS 970 DEB

Track COSMOS 970 DEB now!
10-day predictions


NORAD ID: 12862
Int'l Code: 1977-121AQ
Perigee: 774.9 km
Apogee: 994.8 km
Inclination: 66.2 °
Period: 102.5 minutes
Semi major axis: 7255 km
RCS: 0.0129 m2 (small)
Launch date: December 21, 1977
Source: Commonwealth of Independent States (former USSR) (CIS)
Launch site: TYURATAM MISSILE AND SPACE COMPLEX (TTMTR)

Note: This is SATELLITE DEBRIS
Your satellite tracking list
Your tracking list is empty





NASA's NSSDC Master Catalog

Two Line Element Set (TLE):
1 12862U 77121AQ  16241.12447439  .00000397  00000-0  27096-3 0  9991
2 12862  66.2104 297.8311 0151534 174.8192 205.9770 14.04665535863110
Source of the keplerian elements: AFSPC

N2YO: 577